Flag for U.S.A. Weather past 2 weeks in Leawood, Kansas, U.S.A.

Now
78 °F

Clear.


Feels Like: 80 °F
Forecast: 77 / 94 °F
Wind: 8 mph from South

Location: Johnson County Executive Airport

Current Time: Aug 22, 2014 at 5:04:14 AM

Latest Report: Aug 22, 2014 at 3:53 AM


Visibility: 10 mi

Pressure: 29.88 "Hg

Humidity: 79%

Dew point: 71 °F

Location of LeawoodLocation

Historic Weather in Leawood — Graph

°F

Leawood temperature yesterday

Maximum temperature yesterday: 94 °F (at 3:53 PM)
Minimum temperature yesterday: 76 °F (at 2:53 AM)
Average temperature yesterday: 84 °F

Past Weeks' High & Low Weather Summary

 TemperatureHumidityPressure
High94 °F (Aug 21, 3:53 PM)100% (Aug 7, 3:00 AM)30.14 "Hg (Aug 7, 3:00 AM)
Low59 °F (Aug 12, 5:53 AM)41% (Aug 19, 4:53 PM)29.72 "Hg (Aug 19, 5:53 AM)
Average75 °F75%29.93 "Hg
* Reported Aug 7 3:00 AM — Aug 22 3:53 AM, Leawood, Weather by CustomWeather, © 2014

Note: Actual official high and low records may vary slightly from our data, if they occured in-between our weather recording intervals... More about our weather records

Advertising

Leawood weather history for previous 24 hours

 ConditionsComfort  
Time TempWeatherWind HumidityBarometerVisibility
3:53 AM
Aug 22
78 °FClear.8 mph79%29.88 "Hg10 mi
2:53 AM78 °FClear.9 mph79%29.87 "Hg10 mi
1:53 AM79 °FClear.10 mph77%29.87 "Hg10 mi
12:53 AM80 °FClear.9 mph74%29.90 "Hg10 mi
11:53 PM
Aug 21
81 °FClear.10 mph72%29.89 "Hg10 mi
10:53 PM82 °FClear.9 mph70%29.88 "Hg10 mi
9:53 PM83 °FClear.9 mph70%29.87 "Hg10 mi
8:53 PM85 °FSunny.9 mph65%29.85 "Hg10 mi
7:53 PM88 °FSunny.9 mph59%29.82 "Hg10 mi
6:53 PM91 °FSunny.12 mph52%29.82 "Hg10 mi
5:53 PM93 °FSunny.10 mph50%29.82 "Hg10 mi
4:53 PM94 °FSunny.14 mph49%29.83 "Hg10 mi
3:53 PM94 °FSunny.12 mph49%29.83 "Hg10 mi
2:53 PM93 °FSunny.13 mph50%29.85 "Hg10 mi
1:53 PM92 °FSunny.13 mph52%29.86 "Hg10 mi
12:53 PM89 °FSunny.15 mph57%29.88 "Hg10 mi
11:53 AM87 °FSunny.13 mph61%29.90 "Hg10 mi
10:53 AM85 °FSunny.14 mph65%29.89 "Hg10 mi
9:53 AM82 °FSunny.16 mph70%29.88 "Hg10 mi
8:53 AM79 °FSunny.13 mph77%29.88 "Hg10 mi
7:53 AM77 °FPassing clouds.10 mph79%29.88 "Hg10 mi
6:53 AM76 °FPassing clouds.13 mph82%29.86 "Hg10 mi
5:53 AM76 °FClear.12 mph80%29.86 "Hg10 mi
Weather by CustomWeather, © 2014

See weather overviewHow to use our weather pages